VK5FR Weather Reports


time (UTC)temp
C
wind
direction
speed
KPH
gust
KPH
rain 1hr
cm
rain 24hr
cm
rain mn
cm
humidity
%
barometer
mb
20260508214524 12 119 6.4 9.7 0.00 0.00 0.00 92 1027.7
20260508214020 12 104 4.8 9.7 0.00 0.00 0.00 92 1027.8
20260508213518 12 117 8.0 9.7 0.00 0.00 0.00 92 1027.6
20260508213013 12 96 4.8 11.3 0.00 0.00 0.00 91 1027.6
20260508212510 12 124 8.0 9.7 0.00 0.00 0.00 91 1027.7
20260508212006 12 140 8.0 9.7 0.00 0.00 0.00 91 1027.6
20260508211501 12 111 6.4 11.3 0.00 0.00 0.00 91 1027.4
20260508210958 12 108 8.0 11.3 0.00 0.00 0.00 91 1027.5
20260508210455 12 127 6.4 11.3 0.00 0.00 0.00 91 1027.7
20260508205951 12 89 8.0 9.7 0.00 0.00 0.00 91 1027.5
20260508205449 12 117 4.8 8.0 0.00 0.00 0.00 90 1027.6
20260508204945 12 98 4.8 8.0 0.00 0.00 0.00 90 1027.4
20260508204442 12 102 6.4 9.7 0.00 0.00 0.00 90 1027.5
20260508203937 12 100 4.8 8.0 0.00 0.00 0.00 90 1027.3
20260508203434 12 117 4.8 8.0 0.00 0.00 0.00 90 1027.2
20260508202930 12 135 4.8 8.0 0.00 0.00 0.00 90 1027.3
20260508202427 12 141 4.8 4.8 0.00 0.00 0.00 90 1027.2
20260508201924 12 126 6.4 8.0 0.00 0.00 0.00 90 1027.1
20260508201421 12 141 4.8 9.7 0.00 0.00 0.00 90 1027.2
20260508200918 12 138 4.8 8.0 0.00 0.00 0.00 90 1027.2
20260508200415 12 142 4.8 8.0 0.00 0.00 0.00 90 1027.2
20260508195910 12 127 6.4 8.0 0.00 0.00 0.00 90 1027.1
20260508195407 12 137 6.4 8.0 0.00 0.00 0.00 90 1027.0
20260508194903 12 109 4.8 8.0 0.00 0.00 0.00 90 1027.1
20260508194400 12 126 4.8 4.8 0.00 0.00 0.00 90 1027.1
20260508193857 12 139 3.2 4.8 0.00 0.00 0.00 90 1027.1
20260508193354 12 131 3.2 4.8 0.00 0.00 0.00 90 1027.1
20260508192850 12 129 3.2 3.2 0.00 0.00 0.00 90 1026.9
20260508192347 12 148 0.0 3.2 0.00 0.00 0.00 90 1026.9
20260508191845 12 139 1.6 3.2 0.00 0.00 0.00 90 1026.9
20260508191342 12 127 1.6 3.2 0.00 0.00 0.00 90 1026.8
20260508190839 12 119 1.6 4.8 0.00 0.00 0.00 90 1026.8
20260508190335 12 98 3.2 4.8 0.00 0.00 0.00 90 1026.9
20260508185831 12 115 3.2 3.2 0.00 0.00 0.00 90 1026.9
20260508185329 12 42 1.6 3.2 0.00 0.00 0.00 91 1026.9
20260508184826 12 312 0.0 1.6 0.00 0.00 0.00 90 1027.0
20260508184323 12 321 0.0 0.0 0.00 0.00 0.00 90 1027.0
20260508183820 12 27 0.0 3.2 0.00 0.00 0.00 90 1026.9
20260508183317 12 74 4.8 4.8 0.00 0.00 0.00 90 1026.7
20260508182812 12 74 4.8 8.0 0.00 0.00 0.00 90 1026.8
20260508182309 12 129 4.8 4.8 0.00 0.00 0.00 90 1026.9
20260508181759 12 123 4.8 8.0 0.00 0.00 0.00 90 1026.8
20260508181256 12 119 4.8 4.8 0.00 0.00 0.00 90 1026.9
20260508180754 12 141 6.4 11.3 0.00 0.00 0.00 90 1027.0
20260508180250 12 136 6.4 9.7 0.00 0.00 0.00 90 1026.9
20260508175747 12 131 6.4 9.7 0.00 0.00 0.00 90 1026.9
20260508175243 12 110 6.4 9.7 0.00 0.00 0.00 90 1027.1
20260508174741 12 147 4.8 8.0 0.00 0.00 0.00 90 1027.1
20260508174239 12 139 8.0 11.3 0.00 0.00 0.00 90 1027.2
20260508173735 12 139 6.4 9.7 0.00 0.00 0.00 90 1027.3
20260508173231 12 118 6.4 9.7 0.00 0.00 0.00 90 1027.3
20260508172727 12 129 8.0 8.0 0.00 0.00 0.00 90 1027.3
20260508172225 12 127 6.4 9.7 0.00 0.00 0.00 91 1027.3
20260508171721 12 133 6.4 9.7 0.00 0.00 0.00 91 1027.3
20260508171217 12 122 8.0 9.7 0.00 0.00 0.00 91 1027.1
20260508170714 12 85 4.8 9.7 0.00 0.00 0.00 91 1027.4
20260508170212 12 125 6.4 11.3 0.00 0.00 0.00 91 1027.4
20260508165709 12 116 4.8 9.7 0.00 0.00 0.00 91 1027.3
20260508165206 12 137 9.7 11.3 0.00 0.00 0.00 91 1026.9
20260508164703 12 131 8.0 9.7 0.00 0.00 0.00 91 1027.1
20260508164159 12 125 6.4 9.7 0.00 0.00 0.00 91 1027.2
20260508163657 12 107 6.4 9.7 0.00 0.00 0.00 91 1027.2
20260508163154 12 121 8.0 8.0 0.00 0.00 0.00 91 1027.3
20260508162649 12 122 6.4 9.7 0.00 0.00 0.00 91 1027.1
20260508162147 12 136 6.4 11.3 0.00 0.00 0.00 91 1027.1
20260508161644 12 136 8.0 12.9 0.00 0.00 0.00 91 1027.1
20260508161142 12 117 8.0 11.3 0.00 0.00 0.00 91 1027.3
20260508160639 12 94 3.2 9.7 0.00 0.00 0.00 91 1027.4
20260508160137 12 89 4.8 8.0 0.00 0.00 0.00 91 1027.6
20260508155634 12 135 4.8 8.0 0.00 0.00 0.00 91 1027.2
20260508155131 12 133 4.8 4.8 0.00 0.00 0.00 91 1027.4
20260508154628 12 96 4.8 4.8 0.00 0.00 0.00 91 1027.3
20260508154124 12 131 3.2 8.0 0.00 0.00 0.00 91 1027.3
20260508153621 12 229 1.6 3.2 0.00 0.00 0.00 91 1027.4
20260508153118 12 186 1.6 4.8 0.00 0.00 0.00 91 1027.4
20260508152615 12 104 1.6 3.2 0.00 0.00 0.00 91 1027.6
20260508152110 12 137 3.2 9.7 0.00 0.00 0.00 91 1027.4
20260508151607 12 174 6.4 8.0 0.00 0.00 0.00 91 1027.5
20260508151104 12 132 6.4 8.0 0.00 0.00 0.00 91 1027.4
20260508150601 12 162 4.8 8.0 0.00 0.00 0.00 91 1027.8
20260508150057 12 129 1.6 3.2 0.00 0.00 0.00 90 1027.5
20260508145554 12 125 3.2 4.8 0.00 0.00 0.00 90 1027.5
20260508145050 12 65 1.6 4.8 0.00 0.00 0.00 90 1027.6
20260508144548 12 106 1.6 4.8 0.00 0.00 0.00 90 1027.6
20260508144045 12 130 3.2 8.0 0.00 0.00 0.00 90 1027.6
20260508143542 12 186 1.6 3.2 0.00 0.00 0.00 90 1027.8
20260508143039 12 170 3.2 8.0 0.00 0.03 0.03 90 1027.5
20260508142536 12 139 3.2 8.0 0.00 0.03 0.03 90 1027.7
20260508142032 12 111 4.8 4.8 0.00 0.03 0.03 90 1027.8
20260508141529 12 131 4.8 8.0 0.00 0.03 0.03 89 1027.6
20260508141027 12 163 4.8 8.0 0.00 0.03 0.03 89 1027.6
20260508140524 12 135 4.8 8.0 0.00 0.03 0.03 89 1027.6
20260508140020 12 140 4.8 9.7 0.00 0.03 0.03 89 1027.6
20260508135516 12 173 6.4 9.7 0.00 0.03 0.03 89 1027.7
20260508135012 12 172 4.8 9.7 0.00 0.03 0.03 89 1027.7
20260508134509 12 159 6.4 9.7 0.00 0.03 0.03 89 1027.9
20260508134006 12 110 8.0 11.3 0.00 0.03 0.03 89 1027.8
20260508133503 12 143 6.4 9.7 0.00 0.03 0.03 89 1028.2
20260508133000 12 127 6.4 9.7 0.00 0.03 0.03 89 1028.1
20260508132458 12 158 4.8 8.0 0.00 0.03 0.03 89 1028.4
20260508131954 12 147 3.2 8.0 0.00 0.03 0.03 88 1028.3
20260508131450 12 204 1.6 4.8 0.00 0.03 0.03 88 1028.2
20260508130946 12 163 4.8 4.8 0.00 0.03 0.03 88 1028.2
20260508130444 13 171 3.2 4.8 0.00 0.03 0.03 88 1028.3
20260508125939 13 140 4.8 4.8 0.00 0.03 0.03 88 1028.3
20260508125436 13 164 3.2 9.7 0.00 0.03 0.03 87 1028.4
20260508124934 13 159 6.4 8.0 0.00 0.03 0.03 87 1028.3
20260508124431 13 202 3.2 4.8 0.00 0.03 0.03 87 1028.2
20260508123928 13 216 3.2 8.0 0.00 0.03 0.03 87 1028.3
20260508123427 13 144 8.0 9.7 0.00 0.03 0.03 86 1028.5
20260508122923 13 159 6.4 9.7 0.00 0.03 0.03 86 1028.5
20260508122420 13 165 6.4 12.9 0.00 0.03 0.03 86 1028.5
20260508121917 13 172 8.0 11.3 0.00 0.03 0.03 86 1028.4
20260508121416 13 188 6.4 9.7 0.00 0.03 0.03 85 1028.4
20260508120913 13 169 8.0 9.7 0.00 0.03 0.03 85 1028.3
20260508120411 13 179 8.0 11.3 0.00 0.03 0.03 85 1028.4
20260508115908 13 205 4.8 12.9 0.00 0.03 0.03 85 1028.3
20260508115406 13 196 9.7 14.5 0.00 0.03 0.03 84 1028.3
20260508114902 13 167 4.8 11.3 0.00 0.03 0.03 84 1028.5
20260508114359 13 166 4.8 9.7 0.00 0.03 0.03 84 1028.6
20260508113855 13 168 4.8 11.3 0.00 0.03 0.03 83 1028.2
20260508113353 13 174 4.8 8.0 0.00 0.03 0.03 83 1028.4
20260508112850 13 176 8.0 9.7 0.00 0.03 0.03 83 1028.4
20260508112347 13 154 4.8 9.7 0.00 0.03 0.03 83 1028.4
20260508111843 13 183 8.0 11.3 0.00 0.03 0.03 83 1028.2
20260508111340 13 198 1.6 4.8 0.00 0.03 0.03 83 1028.2
20260508110838 13 162 9.7 12.9 0.00 0.03 0.03 83 1028.3
20260508110335 13 179 8.0 12.9 0.00 0.03 0.03 83 1028.3
20260508105835 13 211 6.4 12.9 0.00 0.03 0.03 83 1028.3
20260508105332 13 173 6.4 9.7 0.00 0.03 0.03 83 1028.2
20260508104829 13 192 6.4 11.3 0.00 0.03 0.03 82 1028.3
20260508104325 13 185 8.0 11.3 0.00 0.03 0.03 82 1028.2
20260508103823 13 184 3.2 9.7 0.00 0.03 0.03 82 1028.3
20260508103320 13 189 6.4 9.7 0.00 0.03 0.03 82 1028.3
20260508102817 14 170 4.8 11.3 0.00 0.03 0.03 82 1028.2
20260508102315 14 178 9.7 9.7 0.00 0.03 0.03 82 1028.2
20260508101812 14 183 6.4 9.7 0.00 0.03 0.03 81 1028.4
20260508101310 14 192 6.4 8.0 0.00 0.03 0.03 81 1028.4
20260508100807 14 174 8.0 9.7 0.00 0.03 0.03 81 1028.3
20260508100306 14 202 4.8 9.7 0.00 0.03 0.03 81 1028.4
20260508095801 14 183 6.4 11.3 0.00 0.03 0.03 80 1028.2
20260508095259 15 154 9.7 11.3 0.00 0.03 0.03 80 1028.2
20260508094755 15 183 4.8 9.7 0.00 0.03 0.03 80 1028.3
20260508094252 15 211 6.4 12.9 0.00 0.03 0.03 79 1028.3
20260508093749 15 212 3.2 8.0 0.00 0.03 0.03 79 1028.1
20260508093247 15 196 6.4 12.9 0.00 0.03 0.03 79 1028.2
20260508092744 15 218 8.0 11.3 0.00 0.03 0.03 79 1027.9
20260508092242 15 194 11.3 14.5 0.00 0.03 0.03 79 1028.1
20260508091740 15 225 11.3 14.5 0.00 0.03 0.03 78 1028.0
20260508091236 15 197 6.4 11.3 0.00 0.03 0.03 78 1028.0
20260508090734 15 182 8.0 11.3 0.00 0.03 0.03 77 1028.0
20260508090232 15 163 11.3 11.3 0.00 0.03 0.03 77 1027.9
20260508085727 15 190 9.7 14.5 0.00 0.03 0.03 76 1027.8
20260508085225 15 165 11.3 16.1 0.00 0.03 0.03 76 1027.7
20260508084720 15 171 12.9 14.5 0.00 0.03 0.03 75 1027.8
20260508084218 15 176 9.7 16.1 0.00 0.03 0.03 75 1027.9
20260508083716 15 189 9.7 22.5 0.00 0.03 0.03 75 1027.8
20260508083213 15 188 8.0 17.7 0.00 0.03 0.03 76 1027.7
20260508082708 15 194 8.0 11.3 0.00 0.03 0.03 77 1027.7
20260508082206 15 215 11.3 14.5 0.00 0.03 0.03 77 1027.7
20260508081703 15 197 8.0 14.5 0.00 0.03 0.03 78 1027.6
20260508081159 15 204 6.4 11.3 0.00 0.03 0.03 79 1027.8
20260508080657 15 167 8.0 11.3 0.00 0.03 0.03 79 1027.7
20260508080155 15 193 9.7 12.9 0.00 0.03 0.03 79 1027.5
20260508075651 15 201 12.9 16.1 0.00 0.03 0.03 79 1027.4
20260508075148 15 185 9.7 12.9 0.00 0.03 0.03 79 1027.5
20260508074646 15 202 9.7 12.9 0.00 0.03 0.03 79 1027.3
20260508074143 15 204 8.0 14.5 0.00 0.03 0.03 79 1027.4
20260508073640 15 216 11.3 14.5 0.00 0.03 0.03 79 1027.4
20260508073138 15 234 8.0 11.3 0.00 0.03 0.03 80 1027.3
20260508072633 15 220 11.3 17.7 0.00 0.03 0.03 80 1027.3
20260508072130 15 199 11.3 17.7 0.00 0.03 0.03 81 1027.3
20260508071628 15 227 19.3 22.5 0.00 0.03 0.03 81 1027.4
20260508071126 16 208 14.5 20.9 0.00 0.03 0.03 80 1027.4
20260508070623 16 229 14.5 25.7 0.00 0.03 0.03 79 1027.2
20260508070122 16 211 19.3 22.5 0.00 0.03 0.03 79 1027.4
20260508065618 16 224 11.3 22.5 0.00 0.03 0.03 79 1027.5
20260508065116 16 219 17.7 25.7 0.00 0.03 0.03 78 1027.5
20260508064614 16 240 20.9 25.7 0.00 0.03 0.03 78 1027.6
20260508064112 16 242 16.1 22.5 0.00 0.03 0.03 77 1027.2
20260508063609 16 224 14.5 24.1 0.00 0.03 0.03 77 1027.4
20260508063107 16 246 17.7 25.7 0.00 0.03 0.03 77 1027.4
20260508062604 16 229 16.1 17.7 0.00 0.03 0.03 78 1027.3
20260508062100 16 219 19.3 22.5 0.00 0.03 0.03 80 1027.4
20260508061558 16 272 14.5 17.7 0.00 0.03 0.03 82 1027.4
20260508061055 16 267 6.4 17.7 0.00 0.03 0.03 82 1027.4
20260508060552 16 258 8.0 14.5 0.00 0.03 0.03 82 1027.2
20260508060049 16 230 14.5 16.1 0.00 0.03 0.03 81 1027.3
20260508055545 15 231 12.9 22.5 0.00 0.03 0.03 80 1027.2
20260508055042 15 213 8.0 16.1 0.00 0.03 0.03 82 1027.4
20260508054538 15 245 6.4 14.5 0.00 0.03 0.03 84 1027.3
20260508054035 15 219 14.5 16.1 0.00 0.03 0.03 84 1027.6
20260508053532 15 219 14.5 22.5 0.00 0.03 0.03 84 1027.5
20260508053031 16 210 14.5 22.5 0.00 0.03 0.03 84 1027.4
20260508052528 15 241 22.5 27.4 0.00 0.03 0.03 84 1027.4
20260508052024 16 259 25.7 29.0 0.00 0.03 0.03 82 1027.5
20260508051521 16 194 9.7 12.9 0.00 0.03 0.03 79 1027.4
20260508051016 16 229 9.7 14.5 0.00 0.03 0.03 79 1027.4
20260508050513 15 225 16.1 24.1 0.00 0.03 0.03 79 1027.5
20260508050010 15 234 16.1 20.9 0.00 0.03 0.03 80 1027.6
20260508045506 15 237 11.3 17.7 0.00 0.03 0.03 81 1027.5
20260508045004 15 250 19.3 27.4 0.00 0.03 0.03 82 1027.7
20260508044501 16 225 25.7 27.4 0.00 0.03 0.03 82 1027.7
20260508043956 16 226 11.3 25.7 0.00 0.03 0.03 82 1027.4
20260508043453 16 231 20.9 24.1 0.00 0.03 0.03 80 1027.5
20260508042949 16 235 20.9 25.7 0.00 0.03 0.03 80 1027.5
20260508042448 16 251 20.9 27.4 0.00 0.03 0.03 79 1027.8
20260508041944 16 251 14.5 22.5 0.00 0.03 0.03 77 1027.5
20260508041441 16 235 17.7 24.1 0.00 0.03 0.03 76 1027.6
20260508040937 16 221 16.1 27.4 0.00 0.03 0.03 76 1027.7
20260508040435 16 253 17.7 25.7 0.00 0.03 0.03 75 1027.6
20260508035932 17 227 20.9 25.7 0.00 0.03 0.03 74 1027.8
20260508035429 16 243 19.3 25.7 0.00 0.03 0.03 74 1027.7
20260508034926 17 216 14.5 25.7 0.00 0.03 0.03 73 1027.7
20260508034423 17 231 17.7 24.1 0.00 0.03 0.03 73 1027.8
20260508033919 16 195 12.9 22.5 0.00 0.03 0.03 75 1027.6
20260508033418 16 249 8.0 20.9 0.00 0.03 0.03 77 1027.8
20260508032915 16 208 9.7 14.5 0.00 0.03 0.03 78 1027.9
20260508032413 16 198 12.9 16.1 0.00 0.03 0.03 78 1027.9
20260508031909 16 177 16.1 25.7 0.00 0.03 0.03 78 1028.0
20260508031407 16 200 14.5 17.7 0.00 0.03 0.03 78 1028.1
20260508030902 15 232 16.1 17.7 0.00 0.03 0.03 79 1028.2
20260508030359 15 239 14.5 24.1 0.00 0.03 0.03 81 1028.3
20260508025856 15 224 19.3 27.4 0.00 0.03 0.03 85 1028.3
20260508025353 15 234 12.9 17.7 0.00 0.03 0.03 88 1028.4
20260508024850 15 198 12.9 25.7 0.00 0.03 0.03 88 1028.3
20260508024347 15 242 17.7 25.7 0.00 0.03 0.03 87 1028.4
20260508023844 15 234 20.9 25.7 0.00 0.03 0.03 85 1028.3
20260508023341 15 226 11.3 20.9 0.00 0.03 0.03 86 1028.4
20260508022837 15 189 19.3 22.5 0.00 0.03 0.03 85 1028.3
20260508022332 15 202 12.9 22.5 0.00 0.03 0.03 85 1028.4
20260508021830 15 236 20.9 29.0 0.00 0.03 0.03 86 1028.4
20260508021326 15 252 20.9 24.1 0.00 0.03 0.03 86 1028.8
20260508020822 15 235 20.9 24.1 0.00 0.03 0.03 86 1028.7
20260508020320 15 246 11.3 20.9 0.00 0.03 0.03 88 1028.5
20260508015817 15 242 24.1 27.4 0.00 0.03 0.03 88 1028.7
20260508015314 14 246 17.7 27.4 0.00 0.03 0.03 88 1028.9
20260508014811 15 261 17.7 24.1 0.00 0.03 0.03 88 1028.9
20260508014308 15 242 12.9 27.4 0.00 0.03 0.03 90 1028.8
20260508013803 14 239 19.3 24.1 0.00 0.03 0.03 90 1029.0
20260508013300 15 234 16.1 22.5 0.00 0.03 0.03 90 1029.0
20260508012757 14 235 12.9 16.1 0.00 0.03 0.03 90 1029.1
20260508012255 14 208 16.1 20.9 0.00 0.03 0.03 90 1029.1
20260508011752 15 247 17.7 22.5 0.00 0.03 0.03 90 1029.3
20260508011249 14 218 14.5 24.1 0.00 0.03 0.03 90 1029.1
20260508010746 14 242 14.5 16.1 0.13 0.03 0.03 90 1029.2
20260508010245 14 248 11.3 20.9 0.13 0.03 0.03 90 1029.2
20260508005741 14 219 20.9 29.0 0.00 0.00 0.00 89 1029.1
20260508005238 14 230 11.3 20.9 0.00 0.00 0.00 89 1029.1
20260508004733 14 235 9.7 14.5 0.00 0.00 0.00 89 1029.1
20260508004230 15 216 17.7 25.7 0.00 0.00 0.00 88 1029.1
20260508003727 15 205 11.3 16.1 0.00 0.00 0.00 88 1029.2
20260508003224 14 240 12.9 16.1 0.00 0.00 0.00 89 1029.0
20260508002721 14 219 9.7 16.1 0.00 0.00 0.00 89 1029.0
20260508002218 14 247 9.7 17.7 0.00 0.00 0.00 88 1028.9
20260508001714 14 219 14.5 17.7 0.00 0.00 0.00 88 1028.8
20260508001209 14 258 8.0 16.1 0.00 0.00 0.00 87 1029.2
20260508000706 14 235 16.1 25.7 0.00 0.00 0.00 86 1028.9
20260508000204 13 220 9.7 14.5 0.00 0.00 0.00 86 1028.9
20260507235659 13 223 14.5 24.1 0.00 0.00 0.00 86 1029.0
20260507235157 14 210 8.0 17.7 0.00 0.00 0.00 87 1028.8
20260507234654 14 201 9.7 12.9 0.00 0.00 0.00 87 1028.9
20260507234150 13 171 6.4 12.9 0.00 0.00 0.00 87 1029.0
20260507233647 14 184 6.4 16.1 0.00 0.00 0.00 86 1029.0
20260507233145 14 228 11.3 17.7 0.00 0.00 0.00 85 1028.7
20260507232641 14 186 9.7 12.9 0.00 0.00 0.00 83 1028.9
20260507232133 14 212 12.9 16.1 0.00 0.00 0.00 82 1028.8
20260507231629 14 197 8.0 17.7 0.00 0.00 0.00 80 1028.8
20260507231127 14 203 11.3 16.1 0.00 0.00 0.00 79 1028.8
20260507230623 14 234 11.3 14.5 0.00 0.00 0.00 78 1028.8
20260507230121 15 238 14.5 20.9 0.00 0.00 0.00 78 1028.7
20260507225615 15 206 12.9 14.5 0.00 0.00 0.00 77 1028.7
20260507225112 15 241 17.7 20.9 0.00 0.00 0.00 77 1028.6
20260507224607 15 219 11.3 17.7 0.00 0.00 0.00 77 1028.5
20260507224104 15 236 17.7 27.4 0.00 0.00 0.00 77 1028.7
20260507223600 15 217 20.9 29.0 0.00 0.00 0.00 77 1028.6
20260507223057 15 206 12.9 17.7 0.00 0.00 0.00 77 1028.6
20260507222554 15 242 12.9 24.1 0.00 0.00 0.00 77 1028.4
20260507222050 15 236 20.9 25.7 0.00 0.00 0.00 77 1028.4
20260507221547 15 234 12.9 20.9 0.00 0.00 0.00 76 1028.2
20260507221044 15 223 12.9 14.5 0.00 0.00 0.00 76 1028.3
20260507220541 15 217 16.1 25.7 0.00 0.00 0.00 76 1028.2
20260507220039 15 221 11.3 16.1 0.00 0.00 0.00 76 1028.0
20260507215535 15 241 12.9 17.7 0.00 0.00 0.00 75 1028.0
20260507215033 15 231 16.1 24.1 0.00 0.00 0.00 76 1027.7